Regional Weather Roundup
Issued by NWS

Home | Current Version | Previous Version | Text Only | Print | Product List | Glossary On
Versions: 1 2 3 4 5 6 7 8 9 10 11 12 13 14 15 16 17 18 19 20 21 22 23 24 25 26 27 28 29 30 31 32 33 34 35 36 37 38 39 40 41 42 43 44 45 46 47 48 49 50
000
ASCA42 TJSJ 281511
RWRPR
PUERTO RICO/U.S. VIRGIN ISLANDS HOURLY WEATHER ROUNDUP
NATIONAL WEATHER SERVICE SAN JUAN PR
1100 AM AST FRI NOV 28 2014

PRZ001-004-281600-
PUERTO RICO

CITY           SKY/WX    TMP DP  RH WIND       PRES   REMARKS
SAN JUAN LMM   MOSUNNY   82  72  69 E7        29.98F
PONCE          MOSUNNY   86  72  62 S9        29.95F HX  92
AGUADILLA      SUNNY     82  66  57 E8        29.98F
CEIBA          SUNNY     82  72  69 CALM      30.01F
$$

PRZ006-007-281600-
U.S. VIRGIN ISLANDS

CITY           SKY/WX    TMP DP  RH WIND       PRES   REMARKS
CHRISTIANSTED  MOSUNNY   84  70  61 E7        29.99F
$$

HOURLY WEATHER ROUNDUP FOR THE NEWS MEDIA

CITY           SKY/WX    TMP DP  RH WIND       PRES   REMARKS
MIAMI          MOSUNNY   62  46  55 N10       30.25R
ORLANDO        SUNNY     50  38  63 N8        30.34R
NEW YORK       MOSUNNY   36  20  52 NW20      30.19R WCI  25
NEWARK         MOSUNNY   35  20  54 N17G24    30.20R WCI  25
CHICAGO        CLOUDY    21  14  74 S14       30.24F WCI   8
HARTFORD       CLOUDY    31  27  85 NW8       30.04R WCI  23
BOSTON         PTSUNNY   30  24  78 NW8       30.08R WCI  22
DALLAS         MOSUNNY   50  31  48 S12       30.26R
PHILADELPHIA   MOSUNNY   37  21  52 NW14      30.26R WCI  28


USA.gov is the U.S. government's official web portal to all federal, state and local government web resources and services.